Miscellaneous Local Product
Issued by NWS Hastings, NE

Home | Current Version | Previous Version | Graphics & Text | Print | Product List | Glossary On
Versions: 1 2 3 4 5 6 7 8 9 10 11 12 13 14 15 16 17 18 19 20 21 22 23 24 25 26 27 28 29 30 31 32 33 34 35 36 37 38 39 40 41 42 43 44 45 46 47 48 49 50
000
AXUS43 KGID 202202
MISGRI

GID CWA HOURLY WEATHER ROUNDUP
NATIONAL WEATHER SERVICE HASTINGS NE
500 PM CDT MON APR 20 2015

NOTE: "FAIR" INDICATES FEW OR NO CLOUDS BELOW 12,000 FEET WITH NO
SIGNIFICANT WEATHER AND/OR OBSTRUCTIONS TO VISIBILITY.

...SOUTH CENTRAL NEBRASKA...

CITY           SKY/WX    TMP DP  RH WIND       PRES   REMARKS
GRAND ISLAND   MOSUNNY   57  22  25 NW25G31   29.83F
HASTINGS       PTSUNNY   58  27  30 NW23G30   29.83F
KEARNEY        PTSUNNY   55  21  26 NW18G28   29.84F
ORD            PTSUNNY   54  22  28 NW23G30   29.81F
YORK           MOSUNNY   55  23  28 NW24G30   29.81F
AURORA         MOSUNNY   57  22  25 NW21G33   29.82F
LEXINGTON      MOSUNNY   57  26  30 NW23      29.85F
HOLDREGE       MOSUNNY   56  22  27 NW22G28   29.86F
HEBRON         CLOUDY    59  17  19 NW17G25   29.83F

...NEBRASKA PANHANDLE...

CITY           SKY/WX    TMP DP  RH WIND       PRES   REMARKS
CHADRON        MOSUNNY   55  24  30 NW17G30   29.85F
ALLIANCE       PTSUNNY   54  23  30 NW16G26   29.85F
SCOTTSBLUFF    MOSUNNY   57  24  28 W21G29    29.87F
SIDNEY         PTSUNNY   54  27  35 NW18G26   29.88F

...WESTERN AND NORTH CENTRAL NEBRASKA...

CITY           SKY/WX    TMP DP  RH WIND       PRES   REMARKS
VALENTINE      CLOUDY    51  20  29 NW21G32   29.82F
AINSWORTH      PTSUNNY   54  22  28 NW23G31   29.82F
ONEILL         PTSUNNY   54  19  26 NW26G35   29.79F
BROKEN BOW     CLOUDY    58  22  24 NW23G31   29.83F
IMPERIAL       CLOUDY    51  25  36 NW15G23   29.87F
NORTH PLATTE   PTSUNNY   56  24  29 NW18G32   29.86F
MCCOOK         CLOUDY    60  24  25 NW16      29.87F

...EASTERN NEBRASKA...

CITY           SKY/WX    TMP DP  RH WIND       PRES   REMARKS
NORFOLK        PTSUNNY   57  18  21 NW23G43   29.75S
SO SIOUX CITY  SUNNY     57  11  16 NW31G38   29.69R
TEKAMAH        SUNNY     58  18  21 NW30G44   29.73F
COLUMBUS       PTSUNNY   55  19  24 NW25G37   29.79S
ALBION         MOSUNNY   54  18  24 NW21G35   29.79F
OMAHA EPPLEY   MOSUNNY   57  14  18 NW25G43   29.74S
OFFUTT AFB     MOSUNNY   59  19  21 W25G35    29.74S
MILLARD        MOSUNNY   58  19  22 NW18G33   29.76S
LINCOLN        PTSUNNY   59  19  21 NW22G33   29.80F
NEBRASKA CITY  PTSUNNY   58  12  16 NW21G33   29.79S
BEATRICE       PTSUNNY   57  25  28 NW20G33   29.82F
FALLS CITY     PTSUNNY   58  22  24 NW20G36   29.80F

...NORTHERN KANSAS...

CITY           SKY/WX    TMP DP  RH WIND       PRES   REMARKS
GOODLAND       CLOUDY    56  30  37 N12       29.89F
HILL CITY      PTSUNNY   60  27  28 W20       29.89F
NORTON         MOCLDY    57  19  23 NW20G28   29.87S
PHILLIPSBURG   PTSUNNY   63  27  25 NW14G28   29.87F
SMITH CENTER   MOSUNNY   59  21  23 W21G26    29.87F
BELOIT         MOSUNNY   61  21  21 W14G20    29.86F
HAYS           CLOUDY    63  25  23 W21       29.89F
RUSSELL        PTSUNNY   63  26  24 NW20G28   29.88F
CONCORDIA      PTSUNNY   59  24  26 NW18G24   29.86F
SALINA         CLOUDY    63  28  26 NW21G26   29.88F
TOPEKA         PTSUNNY   59  25  27 W15G24    29.85F



USA.gov is the U.S. government's official web portal to all federal, state and local government web resources and services.